Showing default

UND ROADS 2, 64549

Orbit data source: Space-Track

UND ROADS 2, 64549 is an American payload satellite in SSO that was launched on Mon, 23 Jun 2025 UTC via an FALCON 9 launch vehicle from the Air Force Western Test Range (AFWTR). Payload-class satellites include a variety of spacecraft equipped with specific instruments for various scientific and technological missions. These include communications satellites like Starlink; space stations such as the ISS; scientific satellites like the Hubble; Earth observation satellites from companies like Planet Labs, Umbra, and HawkEye 360; GPS; miniature CubeSats for education and research; and military/defense satellites.

Loading next visibility...
Identifier
64549, 2025-135X
Orbit
SSO
Country
Flag of USUS
Related business
Manufacturer
UND
Mission
Operational Amateur Technology
Bus & Motor
CUBESAT 3U, Unknown motor
Mass
5.4 kg wet, 5.4 kg dry
Launch date (UTC)
2025-06-23 (11 months ago)
Launch vehicle
FALCON 9
Launch site
Air Force Western Test Range (AFWTR)
Object type
Payload
Rocket body
Debris
Shape & HBR
Box, 0.2 m
Radar Cross Section
0.035 m², Medium (>0.1 m² and < 1m²)

Expand to show TLE details & history
Last TLE update: 3 days ago

TLE from 3 days ago
0 UND ROADS 2
1 64549U 25135X   26154.98509033  .00007441  00000-0  31299-3 0  9992
2 64549  97.4780 271.2185 0002592 122.8472 237.3015 15.23685935 52909
Epoch: 2026-06-03T23:38Z
TLE epoch observation values (Epoch: 2026-06-03T23:38:31.804Z)
Latitude
Longitude
24.15012°
Altitude
498.79 km
Speed
7.615 km/s
True Right ascension
18h 04m 52s
True Declination
0° 00' 00"
Sunlit
Object was in full shadow at epoch
Visualization orbit readout
Latitude
Unknown
Longitude
Unknown
Altitude
Unknown
Speed
Unknown
Apparent Right ascension
Unknown
Apparent Declination
Unknown
Sunlit
N/A
Visualization observer readout
Local Sidereal Time
02:28:45
Azimuth
Unknown
Elevation
Unknown
Doppler factor
Unknown
Orbital elements
Apogee altitude
493.479 km
Perigee altitude
489.918 km
Semi-major axis
6,869.835 km
Eccentricity
0.00026
Inclination
97.478°
RAAN
271.2185°
Arg. of periapsis
122.8472°
True anomaly
237.27651°
Mean anomaly
237.3015°
Eccentric anomaly
237.289°
Mean motion
3.81174 °/min
Orbital period
94.44 mins
BSTAR
0.00031299
Loading maneuver chart data...
Computing Atmospheric mass density...
Loading historical data...
Loading historical data...
Loading historical data...
Loading historical data...
Loading historical data...
Loading historical data...
Loading historical data...

Documentation

Showing up to 5 results
|